Location: Unspecified
(48.7670°N, 0.0000°E)
Time: 04:14:18
(UTC+00:00)

Vanguard 2 Rocket - Pass Details

Date: 02 October 2020
Orbit: 554 x 3326 km, 32.9° (Epoch: 26 October)

Event Time Altitude Azimuth Distance (km) Brightness Sun altitude
Exits shadow 01:31:37 39° 156° (SSE) 4,074 9.8 -39.9°
Drops below altitude 10° 01:49:05 10° 98° (E) 6,256 11.4 -38.2°
Sets 01:54:16 0° 91° (E) 7,164 11.9 -37.7°
